Flag for Switzerland Weather past 2 weeks in Weinfelden, Thurgau, Switzerland

Now
44 °F

Clear.


Feels Like: 44 °F
Forecast: 35 / 63 °F
Wind: 1 mph from Northeast

Location: Konstanz

Current Time: Apr 22, 2015 at 6:48:01 AM

Latest Report: Apr 22, 2015 at 5:00 AM


Visibility: 22 mi

Pressure: 30.35 "Hg

Humidity: 84%

Dew point: 40 °F

Location of WeinfeldenLocation

Historic Weather in Weinfelden — Graph

°F

Weinfelden temperature yesterday

Maximum temperature yesterday: 71 °F (at 6:00 PM)
Minimum temperature yesterday: 42 °F (at 7:00 AM)
Average temperature yesterday: 57 °F

Past Weeks' High & Low Weather Summary

 TemperatureHumidityPressure
High74 °F (Apr 15, 4:00 PM)99% (Apr 17, 10:00 PM)30.62 "Hg (Apr 17, 10:00 PM)
Low31 °F (Apr 8, 7:00 AM)20% (Apr 8, 5:00 PM)29.88 "Hg (Apr 16, 6:00 PM)
Average53 °F58%30.26 "Hg
* Reported Apr 7 5:00 AM — Apr 22 5:00 AM, Weinfelden, Weather by CustomWeather, © 2015

Note: Actual official high and low records may vary slightly from our data, if they occured in-between our weather recording intervals... More about our weather records

Advertising

Weinfelden weather history for previous 24 hours

 ConditionsComfort  
Time TempWeatherWind HumidityBarometerVisibility
5:00 AM
Wed, Apr 22
44 °FClear.1 mph84%30.35 "Hg22 mi
4:00 AM46 °FClear.2 mph78%30.35 "Hg31 mi
3:00 AM47 °FClear.1 mph78%30.36 "Hg43 mi
2:00 AM48 °FClear.2 mph77%30.37 "Hg43 mi
1:00 AM50 °FClear.2 mph63%30.37 "Hg43 mi
12:00 AM52 °FClear.2 mph60%30.36 "Hg43 mi
11:00 PM
Tue, Apr 21
54 °FClear.1 mph54%30.35 "Hg31 mi
10:00 PM58 °FClear.1 mph41%30.33 "Hg43 mi
9:00 PM61 °FPassing clouds.2 mph36%30.31 "Hg47 mi
8:00 PM67 °FPassing clouds.1 mph28%30.28 "Hg47 mi
7:00 PM70 °FPassing clouds.1 mph26%30.27 "Hg47 mi
6:00 PM71 °FPassing clouds.2 mph25%30.27 "Hg47 mi
5:00 PM71 °FPassing clouds.3 mph26%30.28 "Hg37 mi
4:00 PM70 °FPassing clouds.3 mph26%30.29 "Hg37 mi
3:00 PM70 °FPassing clouds.3 mph30%30.30 "Hg37 mi
2:00 PM67 °FPassing clouds.3 mph32%30.32 "Hg28 mi
1:00 PM65 °FPassing clouds.3 mph39%30.34 "Hg28 mi
12:00 PM59 °FPassing clouds.2 mph46%30.36 "Hg25 mi
11:00 AM56 °FPassing clouds.2 mph48%30.37 "Hg25 mi
10:00 AM55 °FPassing clouds.2 mph52%30.37 "Hg28 mi
9:00 AM52 °FPassing clouds.1 mph64%30.37 "Hg22 mi
8:00 AM46 °FPassing clouds.1 mph75%30.38 "Hg22 mi
7:00 AM42 °FPassing clouds.1 mph87%30.37 "Hg25 mi
6:00 AM44 °FPassing clouds.1 mph86%30.34 "Hg19 mi
Weather by CustomWeather, © 2015

See weather overviewHow to use our weather pages